• In Portugal
  • List of Countries
  • For 7 days
  • Water Temperature
  • Satellite Maps
  • Weather Map
  • Weather Widgets
  • user-avatar
    Login

    Hourly Weather Florianópolis

    Today, 11 December, Monday

    Time Temperature Precipitation Wind Pressure Humidity
    00:00 +24°C° 0 mm 3 mps 753 mmHg 73%
    01:00 +22°C° 0 mm 3 mps 753 mmHg 75%
    02:00 +22°C° 0 mm 4 mps 753 mmHg 78%
    03:00 +21°C° 0 mm 4 mps 753 mmHg 80%
    04:00 +21°C° 0 mm 4 mps 753 mmHg 80%
    05:00 +21°C° 0 mm 5 mps 754 mmHg 81%
    06:00 +20°C° 0 mm 6 mps 754 mmHg 81%
    07:00 +22°C° 0 mm 6 mps 755 mmHg 67%
    08:00 +26°C° 0 mm 6 mps 755 mmHg 53%
    09:00 +28°C° 0 mm 7 mps 756 mmHg 39%
    10:00 +29°C° 0 mm 7 mps 756 mmHg 37%
    11:00 +30°C° 0 mm 7 mps 756 mmHg 35%
    12:00 +32°C° 0 mm 7 mps 757 mmHg 33%
    13:00 +32°C° 0 mm 8 mps 757 mmHg 35%
    14:00 +32°C° 0 mm 8 mps 757 mmHg 37%
    15:00 +32°C° 0 mm 8 mps 757 mmHg 39%
    16:00 +29°C° 0 mm 8 mps 758 mmHg 45%
    17:00 +27°C° 0 mm 8 mps 758 mmHg 51%
    18:00 +24°C° 0 mm 8 mps 758 mmHg 57%
    19:00 +22°C° 0 mm 7 mps 759 mmHg 65%
    20:00 +20°C° 0 mm 7 mps 760 mmHg 74%
    21:00 +17°C° 0 mm 6 mps 761 mmHg 82%
    22:00 +17°C° 0 mm 6 mps 761 mmHg 84%
    23:00 +17°C° 0 mm 5 mps 762 mmHg 85%

    Tomorrow, 12 December, Tuesday

    Time Temperature Precipitation Wind Pressure Humidity
    00:00 +17°C° 0 mm 5 mps 762 mmHg 87%
    01:00 +17°C° 0 mm 5 mps 762 mmHg 88%
    02:00 +17°C° 0 mm 4 mps 762 mmHg 90%
    03:00 +17°C° 0 mm 4 mps 762 mmHg 91%
    04:00 +17°C° 0 mm 4 mps 762 mmHg 92%
    05:00 +17°C° 0 mm 3 mps 762 mmHg 92%
    06:00 +16°C° 0 mm 3 mps 763 mmHg 93%
    07:00 +19°C° 0 mm 3 mps 763 mmHg 79%
    08:00 +21°C° 0 mm 3 mps 764 mmHg 66%
    09:00 +25°C° 0 mm 2 mps 764 mmHg 53%
    10:00 +26°C° 0 mm 3 mps 764 mmHg 48%
    11:00 +28°C° 0 mm 3 mps 764 mmHg 44%
    12:00 +29°C° 0 mm 3 mps 764 mmHg 40%
    13:00 +29°C° 0 mm 3 mps 763 mmHg 43%
    14:00 +29°C° 0 mm 3 mps 763 mmHg 45%
    15:00 +29°C° 0 mm 3 mps 762 mmHg 47%
    16:00 +27°C° 0 mm 3 mps 762 mmHg 53%
    17:00 +26°C° 0 mm 3 mps 762 mmHg 59%
    18:00 +24°C° 0 mm 3 mps 762 mmHg 65%
    19:00 +21°C° 0 mm 2 mps 763 mmHg 75%
    20:00 +19°C° 0 mm 2 mps 764 mmHg 85%
    21:00 +16°C° 0 mm 2 mps 764 mmHg 94%
    22:00 +16°C° 0 mm 2 mps 764 mmHg 95%
    23:00 +16°C° 0 mm 2 mps 764 mmHg 95%

    Day after tomorrow, 13 December, Wednesday

    Time Temperature Precipitation Wind Pressure Humidity
    00:00 +16°C° 0 mm 2 mps 764 mmHg 95%
    01:00 +16°C° 0 mm 2 mps 764 mmHg 95%
    02:00 +16°C° 0 mm 2 mps 764 mmHg 95%
    03:00 +16°C° 0 mm 3 mps 764 mmHg 95%
    04:00 +16°C° 0 mm 2 mps 764 mmHg 95%
    05:00 +16°C° 0 mm 2 mps 764 mmHg 95%
    06:00 +16°C° 0 mm 2 mps 764 mmHg 95%
    07:00 +19°C° 0 mm 3 mps 765 mmHg 83%
    08:00 +22°C° 0 mm 3 mps 765 mmHg 71%
    09:00 +25°C° 0 mm 3 mps 765 mmHg 58%
    10:00 +27°C° 0 mm 4 mps 764 mmHg 52%
    11:00 +29°C° 0 mm 4 mps 764 mmHg 46%
    12:00 +32°C° 0 mm 5 mps 763 mmHg 39%
    13:00 +33°C° 0 mm 5 mps 763 mmHg 39%
    14:00 +33°C° 0 mm 6 mps 762 mmHg 40%
    15:00 +33°C° 0 mm 6 mps 762 mmHg 40%
    16:00 +32°C° 0 mm 6 mps 762 mmHg 48%
    17:00 +29°C° 0 mm 6 mps 762 mmHg 56%
    18:00 +27°C° 0 mm 6 mps 762 mmHg 65%
    19:00 +23°C° 0 mm 5 mps 762 mmHg 74%
    20:00 +21°C° 0 mm 5 mps 763 mmHg 84%
    21:00 +19°C° 0 mm 5 mps 763 mmHg 94%
    22:00 +19°C° 0 mm 5 mps 764 mmHg 94%
    23:00 +19°C° 0 mm 5 mps 764 mmHg 94%

    14 December, Thursday

    Time Temperature Precipitation Wind Pressure Humidity
    00:00 +19°C° 0 mm 5 mps 764 mmHg 93%
    01:00 +19°C° 0 mm 5 mps 763 mmHg 93%
    02:00 +20°C° 0 mm 5 mps 763 mmHg 93%
    03:00 +20°C° 0 mm 5 mps 763 mmHg 94%
    04:00 +20°C° 0 mm 5 mps 763 mmHg 93%
    05:00 +20°C° 0 mm 5 mps 763 mmHg 93%
    06:00 +20°C° 0 mm 5 mps 763 mmHg 93%
    07:00 +22°C° 0 mm 5 mps 763 mmHg 83%
    08:00 +25°C° 0 mm 5 mps 763 mmHg 73%
    09:00 +27°C° 0 mm 5 mps 763 mmHg 63%
    10:00 +30°C° 0 mm 5 mps 762 mmHg 54%
    11:00 +34°C° 0 mm 6 mps 762 mmHg 44%
    12:00 +38°C° 0 mm 6 mps 761 mmHg 35%
    13:00 +38°C° 0 mm 6 mps 760 mmHg 36%
    14:00 +38°C° 0 mm 6 mps 760 mmHg 36%
    15:00 +38°C° 0 mm 6 mps 759 mmHg 37%
    16:00 +35°C° 0 mm 6 mps 759 mmHg 49%
    17:00 +32°C° 0 mm 5 mps 759 mmHg 61%
    18:00 +28°C° 0 mm 5 mps 759 mmHg 72%
    19:00 +27°C° 0 mm 5 mps 760 mmHg 79%
    20:00 +25°C° 0 mm 4 mps 760 mmHg 86%
    21:00 +23°C° 0 mm 4 mps 760 mmHg 92%
    22:00 +22°C° 0.1 mm 4 mps 761 mmHg 94%
    23:00 +22°C° 0.1 mm 4 mps 761 mmHg 96%

    15 December, Friday

    Time Temperature Precipitation Wind Pressure Humidity
    00:00 +21°C° 0.1 mm 4 mps 761 mmHg 97%
    01:00 +21°C° 0 mm 4 mps 760 mmHg 97%
    02:00 +21°C° 0 mm 4 mps 760 mmHg 97%
    03:00 +20°C° 0 mm 4 mps 760 mmHg 97%
    04:00 +21°C° 0 mm 4 mps 760 mmHg 95%
    05:00 +21°C° 0 mm 4 mps 760 mmHg 93%
    06:00 +21°C° 0 mm 4 mps 760 mmHg 92%
    07:00 +26°C° 0 mm 3 mps 760 mmHg 75%
    08:00 +30°C° 0 mm 3 mps 760 mmHg 57%
    09:00 +36°C° 0 mm 3 mps 760 mmHg 40%
    10:00 +38°C° 0 mm 3 mps 760 mmHg 35%
    11:00 +40°C° 0 mm 3 mps 760 mmHg 31%
    12:00 +43°C° 0 mm 4 mps 759 mmHg 26%
    13:00 +40°C° 0 mm 4 mps 759 mmHg 35%
    14:00 +37°C° 0 mm 4 mps 759 mmHg 44%
    15:00 +34°C° 0 mm 4 mps 758 mmHg 53%
    16:00 +31°C° 0 mm 3 mps 759 mmHg 63%
    17:00 +30°C° 0 mm 3 mps 759 mmHg 72%
    18:00 +28°C° 0 mm 2 mps 759 mmHg 82%
    19:00 +27°C° 0 mm 2 mps 759 mmHg 87%
    20:00 +26°C° 0 mm 2 mps 760 mmHg 92%
    21:00 +24°C° 0 mm 2 mps 760 mmHg 97%
    22:00 +24°C° 0 mm 1 mps 760 mmHg 98%
    23:00 +24°C° 0 mm 1 mps 760 mmHg 98%

    16 December, Saturday

    Time Temperature Precipitation Wind Pressure Humidity
    00:00 +24°C° 0 mm 1 mps 760 mmHg 99%
    01:00 +24°C° 0 mm 1 mps 760 mmHg 99%
    02:00 +23°C° 0 mm 1 mps 760 mmHg 99%
    03:00 +23°C° 0 mm 1 mps 760 mmHg 98%
    04:00 +23°C° 0 mm 1 mps 760 mmHg 98%
    05:00 +23°C° 0 mm 1 mps 761 mmHg 97%
    06:00 +23°C° 0 mm 1 mps 761 mmHg 97%
    07:00 +26°C° 0 mm 1 mps 761 mmHg 83%
    08:00 +28°C° 0 mm 2 mps 761 mmHg 68%
    09:00 +31°C° 0 mm 2 mps 761 mmHg 54%
    10:00 +34°C° 0 mm 3 mps 761 mmHg 49%
    11:00 +35°C° 0 mm 4 mps 760 mmHg 44%
    12:00 +37°C° 0 mm 5 mps 760 mmHg 39%
    13:00 +37°C° 0 mm 5 mps 759 mmHg 41%
    14:00 +37°C° 0 mm 5 mps 759 mmHg 43%
    15:00 +36°C° 0 mm 6 mps 758 mmHg 45%
    16:00 +34°C° 0 mm 6 mps 758 mmHg 53%
    17:00 +32°C° 0 mm 5 mps 758 mmHg 61%
    18:00 +30°C° 0 mm 5 mps 758 mmHg 69%
    19:00 +28°C° 0 mm 5 mps 758 mmHg 78%
    20:00 +26°C° 0 mm 5 mps 758 mmHg 86%
    21:00 +23°C° 0 mm 5 mps 759 mmHg 95%
    22:00 +23°C° 0 mm 5 mps 759 mmHg 94%
    23:00 +23°C° 0 mm 5 mps 759 mmHg 94%
    Show more